sat.trackr.live / text

‹ back to catalog

STARLINK-3524

NORAD 51721 · 2022-016H

PAYLOAD ACTIVE UNKNOWN

§ Identity

Operator
Country
US
Launch date
2022-02-21
Launch site
AFETR
Launch vehicle
Mass (kg)
RCS (m²)

Purposes: comms

External: N2YO · Heavens-Above · Gunter

§ Orbital elements

Epoch: 2026-09-20T04:50:49.509888Z

Period
94.01 min
Inclination
53.1594°
Eccentricity
0.0001227
Mean motion
15.31696980 rev/d
Perigee alt
469.9 km
Apogee alt
471.6 km
Semi-major
6,848.9 km
B*
-7.9794e-6
RAAN
161.1721°
Arg perigee
91.1544°
Mean anomaly
268.9598°
Rev number
25,299

§ Raw data

STARLINK-35241 51721U 22016H   26263.20196192 -.00000613  00000+0 -79794-5 0  99982 51721  53.1594 161.1721 0001227  91.1544 268.9598 15.31696980252992

JSON: /api/v1/satellites/51721 · /tle

For live sub-satellite position, see the globe view (requires WebGL).

§ Visibility from observer

Set your observer location to see the next 7 days of passes ≥ 10°. The values pass through the URL so the page stays shareable.

No JS? Fill the form by hand. The geolocation button needs JavaScript.